Location: Hamburg
(53.5500°N, 10.0000°E)
Time: 23:23:58
(UTC+02:00)

Vanguard 1 Rocket - Visible Passes

Search period start: 17 April 2014 00:00
Search period end: 27 April 2014 00:00
Orbit: 650 x 4231 km, 34.3° (Epoch: 14 April)

Date Brightness Start Highest point End Pass type
(mag) Time Alt. Az. Time Alt. Az. Time Alt. Az.
22 Apr 9.1 04:22:05 10° S 04:22:05 10° S 04:22:09 10° S visible
24 Apr 9.1 04:25:38 11° S 04:25:38 11° S 04:26:17 10° S visible
26 Apr 9.2 04:29:15 10° SSW 04:29:15 10° SSW 04:29:40 10° SSW visible
